Date String (YYYY-MM-DD hh:mm:ss) UTC,Instrument flags,Ambient pressure (hPa),Sample flow (lpm),Bypass flow (lpm),Sample temperature (°C),Ambient temperature (°C),ASC tube jacket temperature (°C),LED temperature (°C),Box temperature (°C),Sample RH (%),Mass concentration (μg/m³),Mass concentration (μg/m³)
DateTimeUTC,F1_M11,P_M11,Q1_M11,Q2_M11,T1_M11,T2_M11,T3_M11,T4_M11,T5_M11,U1_M11,X2_M11,X0_M11
2021-08-16 13:00:00,,0828.8,5.00,0.00,29.8,28.3,00.0,39.0,31.5,20.6,0010.11,0013.74
2021-08-16 13:01:00,,0828.7,4.99,0.00,29.8,28.4,00.0,39.0,31.5,20.5,0010.11,0013.75
2021-08-16 13:02:00,,0828.8,5.01,0.00,29.8,28.5,00.0,39.0,31.5,20.5,0010.12,0014.32
2021-08-16 13:03:00,,0829.0,4.99,0.00,29.8,28.6,00.0,39.0,31.6,20.5,0010.11,0014.64
2021-08-16 13:04:00,,0828.8,5.00,0.00,29.9,28.6,00.0,39.0,31.6,20.6,0010.08,0014.61
2021-08-16 13:05:00,,0828.7,4.99,0.00,29.9,28.7,00.0,39.0,31.6,20.6,0010.09,0014.64
2021-08-16 13:06:00,,0828.7,5.01,0.00,29.9,28.7,00.0,39.0,31.6,20.6,0010.05,0014.57
2021-08-16 13:07:00,,0828.7,5.01,0.00,29.9,28.8,00.0,39.0,31.7,20.6,0010.00,0014.29
2021-08-16 13:08:00,,0828.7,4.99,0.00,29.9,28.8,00.0,39.0,31.7,20.6,0009.97,0014.08
2021-08-16 13:09:00,,0828.7,5.01,0.00,30.0,28.9,00.0,39.0,31.7,20.5,0009.95,0013.87
2021-08-16 13:10:00,,0828.7,5.01,0.00,30.0,28.9,00.0,39.0,31.7,20.5,0009.98,0014.28
2021-08-16 13:11:00,,0828.8,5.01,0.00,30.0,29.0,00.0,39.0,31.8,20.5,0010.02,0014.69
2021-08-16 13:12:00,,0828.9,5.00,0.00,30.0,29.0,00.0,39.0,31.8,20.5,0010.04,0015.36
2021-08-16 13:13:00,,0829.2,5.00,0.00,30.0,29.0,00.0,39.1,31.8,20.5,0010.03,0014.85
2021-08-16 13:14:00,,0828.8,4.99,0.00,30.1,29.1,00.0,39.1,31.8,20.5,0010.05,0014.61
2021-08-16 13:15:00,,0828.7,5.01,0.00,30.1,29.1,00.0,39.1,31.8,20.4,0010.04,0014.58
2021-08-16 13:16:00,,0828.8,4.99,0.00,30.1,29.1,00.0,39.1,31.9,20.4,0010.05,0014.67
2021-08-16 13:17:00,,0828.7,4.99,0.00,30.1,29.1,00.0,39.1,31.9,20.5,0010.12,0015.20
2021-08-16 13:18:00,,0828.9,5.00,0.00,30.1,29.2,00.0,39.1,31.9,20.3,0010.18,0015.62
2021-08-16 13:19:00,,0829.1,5.00,0.00,30.2,29.2,00.0,39.2,32.0,20.3,0010.18,0015.56
2021-08-16 13:20:00,,0829.3,5.00,0.00,30.2,29.2,00.0,39.2,32.0,20.3,0010.17,0015.71
2021-08-16 13:21:00,,0829.3,4.99,0.00,30.2,29.0,00.0,39.2,31.9,20.3,0010.14,0015.69
2021-08-16 13:22:00,,0829.3,5.01,0.00,30.1,27.4,00.0,39.2,31.5,20.3,0010.12,0015.59
2021-08-16 13:23:00,,0829.3,4.99,0.00,29.9,26.0,00.0,39.1,31.1,20.6,0010.08,0015.79
2021-08-16 13:24:00,,0829.4,5.00,0.00,29.8,26.1,00.0,39.1,31.1,20.7,0010.06,0015.93
2021-08-16 13:25:00,,0829.3,5.02,0.00,29.7,26.5,00.0,39.0,31.1,20.9,0010.04,0015.89
2021-08-16 13:26:00,,0828.9,5.00,0.00,29.7,27.0,00.0,39.0,31.2,21.1,0010.06,0015.92
2021-08-16 13:27:00,,0828.9,5.00,0.00,29.7,27.3,00.0,39.0,31.2,21.1,0010.04,0015.89
2021-08-16 13:28:00,,0828.8,5.00,0.00,29.7,27.6,00.0,38.9,31.3,21.3,0009.98,0015.57
2021-08-16 13:29:00,,0828.9,5.00,0.00,29.7,27.8,00.0,38.9,31.3,21.3,0009.94,0015.25
2021-08-16 13:30:00,,0828.9,5.00,0.00,29.7,28.0,00.0,38.9,31.4,21.4,0009.92,0015.29
2021-08-16 13:31:00,,0828.9,5.00,0.00,29.7,28.2,00.0,38.9,31.4,21.4,0009.92,0015.17
2021-08-16 13:32:00,,0828.9,4.99,0.00,29.7,28.3,00.0,38.9,31.4,21.4,0009.89,0015.16
2021-08-16 13:33:00,,0828.9,5.01,0.00,29.7,28.4,00.0,38.9,31.5,21.5,0009.85,0015.22
2021-08-16 13:34:00,,0828.9,5.00,0.00,29.8,28.5,00.0,38.9,31.5,21.6,0009.86,0015.35
2021-08-16 13:35:00,,0828.9,5.01,0.00,29.8,28.6,00.0,38.9,31.5,21.5,0009.86,0015.13
2021-08-16 13:36:00,,0828.9,5.00,0.00,29.8,28.7,00.0,38.9,31.6,21.4,0009.86,0015.38
2021-08-16 13:37:00,,0828.9,4.99,0.00,29.8,28.7,00.0,38.9,31.6,22.1,0009.84,0015.33
2021-08-16 13:38:00,,0829.0,5.01,0.00,29.9,28.8,00.0,38.9,31.6,21.4,0009.84,0015.76
2021-08-16 13:39:00,,0829.0,5.00,0.00,29.9,28.8,00.0,38.9,31.7,21.3,0009.85,0015.82
2021-08-16 13:40:00,,0829.0,5.00,0.00,29.9,28.9,00.0,38.9,31.7,21.2,0009.86,0015.73
2021-08-16 13:41:00,,0829.0,5.01,0.00,29.9,28.9,00.0,39.0,31.8,21.2,0009.89,0015.69
2021-08-16 13:42:00,,0828.9,4.99,0.00,30.0,29.0,00.0,39.0,31.8,21.8,0009.91,0016.47
2021-08-16 13:43:00,,0829.0,4.99,0.00,30.0,29.0,00.0,39.0,31.8,21.8,0009.95,0016.24
2021-08-16 13:44:00,,0828.9,5.00,0.00,30.0,29.1,00.0,39.0,31.9,21.9,0009.96,0015.80
2021-08-16 13:45:00,,0828.9,5.01,0.00,30.0,29.2,00.0,39.0,31.9,22.3,0009.93,0014.92
2021-08-16 13:46:00,,0828.9,4.98,0.00,30.1,29.2,00.0,39.1,31.9,22.0,0009.96,0014.85
2021-08-16 13:47:00,,0828.9,5.02,0.00,30.1,29.2,00.0,39.1,31.9,22.1,0009.94,0015.26
2021-08-16 13:48:00,,0828.9,5.00,0.00,30.1,29.3,00.0,39.1,32.0,21.8,0009.92,0015.42
2021-08-16 13:49:00,,0828.9,5.00,0.00,30.1,29.3,00.0,39.1,32.0,21.4,0009.94,0015.40
2021-08-16 13:50:00,,0828.9,5.01,0.00,30.2,29.3,00.0,39.2,32.0,21.5,0009.92,0015.75
2021-08-16 13:51:00,,0828.9,4.99,0.00,30.2,28.3,00.0,39.2,31.7,22.2,0009.90,0015.62
2021-08-16 13:52:00,,0828.8,5.00,0.00,30.0,26.6,00.0,39.1,31.2,21.9,0009.90,0016.00
2021-08-16 13:53:00,,0828.8,5.00,0.00,29.9,26.4,00.0,39.1,31.2,22.1,0009.91,0015.54
2021-08-16 13:54:00,,0828.8,5.01,0.00,29.8,26.8,00.0,39.1,31.2,22.5,0009.88,0015.45
2021-08-16 13:55:00,,0828.9,4.99,0.00,29.7,27.2,00.0,39.0,31.3,22.5,0009.88,0016.26
2021-08-16 13:56:00,,0828.8,5.00,0.00,29.7,27.5,00.0,39.0,31.3,22.5,0009.90,0016.44
2021-08-16 13:57:00,,0828.8,4.99,0.00,29.7,27.8,00.0,39.0,31.4,22.8,0009.91,0016.42
2021-08-16 13:58:00,,0828.8,5.01,0.00,29.7,28.0,00.0,38.9,31.4,23.1,0009.91,0015.89
2021-08-16 13:59:00,,0828.8,5.00,0.00,29.8,28.2,00.0,38.9,31.5,22.7,0009.92,0015.79
